Hourly Weather Roundup
Issued by NWS Central Illinois

Home | Current Version | Previous Version | Text Only | Print | Product List | Glossary On
Versions: 1 2 3 4 5 6 7 8 9 10 11 12 13 14 15 16 17 18 19 20 21 22 23 24 25 26 27 28 29 30 31 32 33 34 35 36 37 38 39 40 41 42 43 44 45 46 47 48 49 50
000
NZUS43 KILX 260110
HWRILX

AREA WEATHER ROUNDUP
NATIONAL WEATHER SERVICE, LINCOLN IL
700 PM CST SUN JAN 25 2015


CITY           SKY/WX    TMP DP  RH WIND       PRES   REMARKS
BLOOMINGTON    CLOUDY    29  26  88 N20G30    29.92R WCI  16
CHAMPAIGN      FLURRIES  31  28  89 NE24G32   29.85R WCI  17
DECATUR        CLOUDY    32  32 100 N21G28    29.87R WCI  20
FLORA          CLOUDY    36  36  97 N16       29.76R FOG     WCI  27
GALESBURG      CLOUDY    26  20  79 N16G22    30.00R WCI  13
JACKSONVILLE   CLOUDY    32  26  79 N14G21    29.94R WCI  22
LACON          CLOUDY    27  19  73 N14G21    29.97R WCI  15
LAWRENCEVILLE  CLOUDY    40  38  93 N15       29.72R FOG     WCI  32
LITCHFIELD     CLOUDY    32  29  89 N21G30    29.87R WCI  20
$$


CITY           SKY/WX    TMP DP  RH WIND       PRES   REMARKS
LINCOLN        CLOUDY    32  28  83 N23G29    29.93R WCI  19
MACOMB         CLOUDY    29  23  79 N21G28    30.02R WCI  15
MATTOON        MIX PCPN  31  29  92 N25       29.80R WCI  17
MT CARMEL AP   LGT RAIN  41  37  87 N14       29.71R WCI  33
OLNEY-NOBLE AP CLOUDY    36  34  93 N15G21    29.75R FOG     WCI  26
PARIS          CLOUDY    31  29  94 NE13G23   29.82R WCI  21
PEORIA         CLOUDY    29  21  72 N13G18    29.96R WCI  19
PONTIAC        CLOUDY    30  25  81 NE21G30   29.94R WCI  17
RANTOUL        CLOUDY    32  29  88 NE20      29.86R WCI  20
ROBINSON       CLOUDY    37  36  98 N15       29.74R FOG     WCI  28
SPRINGFIELD    CLOUDY    31  26  82 N21G35    29.92R WCI  18
TAYLORVILLE    CLOUDY    32  28  86 N25G32    29.88R WCI  19
$$

...REGIONAL REPORTS...


CITY           SKY/WX    TMP DP  RH WIND       PRES   REMARKS
CHICAGO O`HARE MOCLDY    25  16  68 NE9       29.95R WCI  15
KANKAKEE       CLOUDY    28  24  86 N16G22    29.92R WCI  16
MOLINE         PTCLDY    25  16  68 N7        30.02R WCI  17
MOUNT VERNON   CLOUDY    37  34  87 N10G21    29.77R WCI  30
PITTSFIELD     CLOUDY    32  27  82 N10G18    29.96R WCI  23
QUINCY         CLOUDY    30  26  85 N17G23    29.98R WCI  18
ROCKFORD       CLEAR     22  11  62 NE13      30.02R WCI  10
$$


CITY           SKY/WX    TMP DP  RH WIND       PRES   REMARKS
BURLINGTON     PTCLDY    27  23  85 N16       30.02R WCI  15
CEDAR RAPIDS   PTCLDY    24  19  81 N5        30.03R WCI  18
DES MOINES     CLOUDY    33  26  75 N9        30.07R WCI  25
KIRKSVILLE     CLOUDY    30  27  88 N14       30.04R WCI  19
OTTUMWA        CLOUDY    29  25  85 N12       30.05R WCI  19
ST LOUIS       LGT SNOW  36  30  80 N18G24    29.91R FOG     WCI  25
$$


CITY           SKY/WX    TMP DP  RH WIND       PRES   REMARKS
TERRE HAUTE    CLOUDY    32  29  88 N15       29.77R WCI  22
EVANSVILLE     CLOUDY    42  40  92 CALM      29.69R FOG
INDIANAPOLIS   LGT SNOW  25  23  92 N20       29.76R FOG     WCI  11
LAFAYETTE      LGT SNOW  26  22  84 NE14      29.86R FOG     WCI  14
MADISON        PTCLDY    18  11  74 NE9       30.04R WCI   7
MILWAUKEE      MOCLDY    25  13  60 NE15G24   30.01R WCI  13
$$




USA.gov is the U.S. government's official web portal to all federal, state and local government web resources and services.